SL-12 DEB, 42974

Orbit data source: Space-Track

SL-12 DEB, 42974 is space debris in HEO originally from a launch on Thu, 02 Sep 2010 UTC launched from the Tyuratam Missile And Space Complex (TTMTR). Debris objects in space refer to the collection of defunct objects orbiting the Earth. Examples of debris include non-operational satellites, rocket bodies, and fragments generated from explosions, collisions, or faulty payload assembly.

Loading next visibility...
Identifier
42974, 2010-041P
Orbit
HEO
Country
Flag of CISCIS
Related business
Manufacturer
RKKE
Mission
Spacecraft
Bus & Motor
Unknown
Mass
Unknown
Launch date (UTC)
2010-09-02 (15 years ago)
Launch vehicle
Unknown
Launch site
Tyuratam Missile And Space Complex (TTMTR)
Object type
Payload
Rocket body
Debris
Shape & HBR
Unknown shape, 0.6 m
Radar Cross Section
Medium (>0.1 m² and <1 m²)

Expand to show TLE details & history
Last TLE update: 3 days ago

TLE from 3 days ago
0 SL-12 DEB
1 42974U 10041P   26032.45956850  .00000188  00000-0  50576-3 0  9990
2 42974  64.8091 110.2296 5639000 315.6539  11.0484  4.32630115132067
Epoch: 2026-02-01T11:01Z
TLE epoch observation values (Epoch: 2026-02-01T11:01:46.718Z)
Latitude
-0.00008°
Longitude
173.11661°
Altitude
1,364.087 km
Speed
8.828 km/s
True Right ascension
07h 20m 55s
True Declination
0° 00' 00"
Sunlit
Object was in full shadow at epoch
Visualization orbit readout
Latitude
Unknown
Longitude
Unknown
Altitude
Unknown
Speed
Unknown
Apparent Right ascension
Unknown
Apparent Declination
Unknown
Sunlit
N/A
Visualization observer readout
Local Sidereal Time
12:43:12
Azimuth
Unknown
Elevation
Unknown
Doppler factor
Unknown
Orbital elements
Apogee altitude
18,501.038 km
Perigee altitude
559.524 km
Semi-major axis
15,908.418 km
Eccentricity
0.5639
Inclination
64.8091°
RAAN
110.2296°
Arg. of periapsis
315.6539°
True anomaly
44.51564°
Mean anomaly
11.0484°
Eccentric anomaly
24.3906°
Mean motion
1.08169 °/min
Orbital period
332.81 mins
BSTAR
0.00050576
Loading maneuver chart data...
Computing Atmospheric mass density...
Loading historical data...
Loading historical data...
Loading historical data...
Loading historical data...
Loading historical data...
Loading historical data...
Loading historical data...

Documentation

Showing up to 5 results
|